[TLELIST] Archives

 

[TLELIST] Current TLEs

February 18th 2025 PDT

HST 1 20580U 90037B 25048.89327600 .00011917 00000-0 48221-3 0 9997 2 20580 28.4678 132.3875 0002412 191.1406 168.9135 15.23100504714727 ISS (ZARYA) 1 25544U 98067A 25049.36865051 .00017018 00000-0 30289-3 0 9996 2 25544 51.6389 175.5124 0004060 333.0365 122.1476 15.50242656496730 CXO 1 25867U 99040B 25050.43880923 .00000910 00000-0 00000-0 0 9999 2 25867 46.8236 135.8362 8590486 307.1490 0.4104 0.37807170 15504 ...Continue Reading

[TLELIST] Current TLEs

February 17th 2025 PDT

HST 1 20580U 90037B 25047.64830742 .00010619 00000-0 42922-3 0 9995 2 20580 28.4680 140.7973 0002515 177.5927 182.4679 15.23070118714273 ISS (ZARYA) 1 25544U 98067A 25048.53056796 .00015934 00000-0 28447-3 0 9990 2 25544 51.6387 179.6660 0004206 328.3586 126.5332 15.50208832496605 CXO 1 25867U 99040B 25047.79358142 .00000824 00000-0 00000+0 0 9990 2 25867 46.7990 135.9313 8595286 307.1265 0.2609 0.37808567 26646 ...Continue Reading

[TLELIST] Current TLEs

February 17th 2025 PDT

HST 1 20580U 90037B 25047.64830742 .00010619 00000-0 42922-3 0 9995 2 20580 28.4680 140.7973 0002515 177.5927 182.4679 15.23070118714273 ISS (ZARYA) 1 25544U 98067A 25048.53056796 .00015934 00000-0 28447-3 0 9990 2 25544 51.6387 179.6660 0004206 328.3586 126.5332 15.50208832496605 CXO 1 25867U 99040B 25047.79358142 .00000824 00000-0 00000+0 0 9990 2 25867 46.7990 135.9313 8595286 307.1265 0.2609 0.37808567 26646 ...Continue Reading

[TLELIST] [TLELIST] Current TLEs

February 17th 2025 PDT

HST 1 20580U 90037B 25047.64830742 .00010619 00000-0 42922-3 0 9995 2 20580 28.4680 140.7973 0002515 177.5927 182.4679 15.23070118714273 ISS (ZARYA) 1 25544U 98067A 25048.53056796 .00015934 00000-0 28447-3 0 9990 2 25544 51.6387 179.6660 0004206 328.3586 126.5332 15.50208832496605 CXO 1 25867U 99040B 25047.79358142 .00000824 00000-0 00000+0 0 9990 2 25867 46.7990 135.9313 8595286 307.1265 0.2609 0.37808567 26646 ...Continue Reading

[TLELIST] Current TLEs

February 16th 2025 PDT

HST 1 20580U 90037B 25046.66542092 .00010506 00000-0 42482-3 0 9990 2 20580 28.4681 147.4362 0002599 166.9404 193.1258 15.23048607714128 ISS (ZARYA) 1 25544U 98067A 25047.36097323 .00015718 00000-0 28112-3 0 9990 2 25544 51.6389 185.4638 0004156 323.0814 80.3534 15.50169220496425 CXO 1 25867U 99040B 25047.79358142 .00000824 00000-0 00000+0 0 9990 2 25867 46.7990 135.9313 8595286 307.1265 0.2609 0.37808567 26646 ...Continue Reading

[TLELIST] Current TLEs

February 16th 2025 PDT

HST 1 20580U 90037B 25046.66542092 .00010506 00000-0 42482-3 0 9990 2 20580 28.4681 147.4362 0002599 166.9404 193.1258 15.23048607714128 ISS (ZARYA) 1 25544U 98067A 25047.36097323 .00015718 00000-0 28112-3 0 9990 2 25544 51.6389 185.4638 0004156 323.0814 80.3534 15.50169220496425 CXO 1 25867U 99040B 25047.79358142 .00000824 00000-0 00000+0 0 9990 2 25867 46.7990 135.9313 8595286 307.1265 0.2609 0.37808567 26646 ...Continue Reading

[TLELIST] Current TLEs

February 15th 2025 PDT

HST 1 20580U 90037B 25045.61699314 .00009150 00000-0 36919-3 0 9995 2 20580 28.4680 154.5172 0002674 156.1532 203.9186 15.23025178713961 ISS (ZARYA) 1 25544U 98067A 25046.47009916 .00016637 00000-0 29734-3 0 9994 2 25544 51.6392 189.8797 0004329 323.4983 145.0745 15.50141998496285 CXO 1 25867U 99040B 25045.15058898 .00000790 00000-0 00000-0 0 9996 2 25867 46.7580 136.0499 8601288 307.0829 0.4558 0.37806619 15484 ...Continue Reading

[TLELIST] Current TLEs

February 15th 2025 PDT

HST 1 20580U 90037B 25045.61699314 .00009150 00000-0 36919-3 0 9995 2 20580 28.4680 154.5172 0002674 156.1532 203.9186 15.23025178713961 ISS (ZARYA) 1 25544U 98067A 25046.47009916 .00016637 00000-0 29734-3 0 9994 2 25544 51.6392 189.8797 0004329 323.4983 145.0745 15.50141998496285 CXO 1 25867U 99040B 25045.15058898 .00000790 00000-0 00000-0 0 9996 2 25867 46.7580 136.0499 8601288 307.0829 0.4558 0.37806619 15484 ...Continue Reading

[TLELIST] Current TLEs

February 14th 2025 PDT

HST 1 20580U 90037B 25044.63407812 .00008665 00000-0 34940-3 0 9998 2 20580 28.4679 161.1563 0002793 146.1308 213.9465 15.23007502713815 ISS (ZARYA) 1 25544U 98067A 25044.92910252 .00013306 00000-0 23995-3 0 9999 2 25544 51.6374 197.5145 0004014 316.7506 186.7432 15.50090175496044 CXO 1 25867U 99040B 25045.15058898 .00000790 00000-0 00000-0 0 9996 2 25867 46.7580 136.0499 8601288 307.0829 0.4558 0.37806619 15484 ...Continue Reading

[TLELIST] Current TLEs

February 13th 2025 PDT

HST 1 20580U 90037B 25043.65115181 .00008438 00000-0 34020-3 0 9991 2 20580 28.4676 167.7952 0002864 136.5792 223.5028 15.22991033713929 ISS (ZARYA) 1 25544U 98067A 25044.27002698 .00016432 00000-0 29443-3 0 9990 2 25544 51.6370 200.7778 0003865 311.5968 111.6540 15.50081024495945 CXO 1 25867U 99040B 25045.15058898 .00000790 00000-0 00000-0 0 9996 2 25867 46.7580 136.0499 8601288 307.0829 0.4558 0.37806619 15484 ...Continue Reading
  • This mailing list is a public mailing list - anyone may join or leave, at any time.
  • This mailing list is announce-only.

International Space Station (ISS) / Hubble Space Telescope (HST) / Chandra X-Ray Observatory Orbital Data via EMAIL

Privacy Policy:

Private list